Tracking 20621 objects as of 31-Mar-2020
HD Live streaming from Space Station
objects crossing your sky now

NARSSCUBE-1

Track NARSSCUBE-1 now!
10-day predictions


NORAD ID: 44792
Int'l Code: 1998-067QV
Perigee: 412.6 km
Apogee: 421.4 km
Inclination: 51.6 °
Period: 92.8 minutes
Semi major axis: 6787 km
RCS: Unknown
Launch date: November 20, 1998
Source: Egypt (EGYP)
Launch site: TYURATAM MISSILE AND SPACE COMPLEX (TTMTR)
aabbcc
Your satellite tracking list
Your tracking list is empty




NASA's NSSDC Master Catalog

Two Line Element Set (TLE):
1 44792U 98067QX  20090.80736746  .00009141  00000-0  15459-3 0  9990
2 44792  51.6423  14.4492 0006477  82.2235 277.9491 15.52354394 20416
Source of the keplerian elements: AFSPC